sat.trackr.live / text

‹ back to catalog

ICEYE-X61

NORAD 66754 · 2025-276CS

PAYLOAD ACTIVE UNKNOWN

§ Identity

Operator
Country
FIN
Launch date
2025-11-28
Launch site
AFWTR
Launch vehicle
Mass (kg)
RCS (m²)

External: N2YO · Heavens-Above · Gunter

§ Orbital elements

Epoch: 2026-05-25T03:50:21.437376Z

Period
94.85 min
Inclination
97.4207°
Eccentricity
0.0004691
Mean motion
15.18237141 rev/d
Perigee alt
507.9 km
Apogee alt
514.4 km
Semi-major
6,889.3 km
B*
1.5146e-4
RAAN
219.0840°
Arg perigee
72.9846°
Mean anomaly
287.1902°
Rev number
2,692

§ Raw data

ICEYE-X611 66754U 25276CS  26145.15997034  .00003034  00000+0  15146-3 0  99952 66754  97.4207 219.0840 0004691  72.9846 287.1902 15.18237141 26920

JSON: /api/v1/satellites/66754 · /tle

For live sub-satellite position, see the globe view (requires WebGL).

§ Visibility from observer

Set your observer location to see the next 7 days of passes ≥ 10°. The values pass through the URL so the page stays shareable.

No JS? Fill the form by hand. The geolocation button needs JavaScript.

§ Radio — SatNOGS DB

ModeDescriptionDownlinkUplink
FM S-band telemetry 2.240 GHz

1 transmitter · refreshed weekly from db.satnogs.org